Jackpot

Texas Poker Multi Jackpot System

Kini Telah hadir Jackpot SUPER ROYAL FLUSH

Kini Telah hadir Jackpot 2000 (khusus table VIP keatas).

Ikutilah global jackpot yang tersedia di system kami, dengan system jackpot terbaru dan pertama di indonesia, anda dapat membeli jackpot dengan harga 100 rupiah saja dan menangkan hadiahnya hingga puluhan juta rupiah.

Jackpot bukanlah suatu keharusan untuk dibeli, namun kami memberikan suatu fitur tambahan untuk member tercinta dari www.pasarkartu.net.

Terdapat tiga pilihan harga jackpot yang bisa anda beli yaitu :100,500,1000 dan 2000(khusus table VIP Keatas) rupiah.

Hadiah dari Multi jackpot system www.pasarkartu.net

  1. full house x 10 harga jackpot yang anda beli.
      (contoh:anda membeli 1000 maka:1000 X10 = 10.000)
  2. four of kind x 250 harga jackpot yang anda beli
      (contoh:anda membeli 1000 maka:1000 X250 = 250.000)
  3. Straight flush x 1200
      (contoh:anda membeli 1000 maka:1000 X1200 = 1.200.000)
  4. Royal flush x 10000 harga jackpot yang anda beli
      (contoh:anda membeli 1000 maka:1000 X10000 = 10.000.000)
  5. SUPER ROYAL FLUSH x 30000 harga jackpot yang anda beli
      (contoh:anda membeli 1000 maka:1000 X30000 = 30.000.000)

Kondisi kartu

  1. full house adalah kondisi kartu dimana kartu anda dan kartu tengah dengan total 7 kartu bisa mendapatkan nilai 5 kartu dengan kombinasi 1 tris(three of kind) dan 1 pair, contoh 3 kartu 10 dan 2 kartu 5
  2. Four of kind adalah kondisi kartu dimana kartu anda dan kartu tengah dengan total 7 kartu bisa mendapatkan nilai 5 kartu dengan kombinasi 4 kartu yang sama jumlah dan 1 kartu apapun juga contoh anda mendapatkan 4 buah kartu angka 3 dan 1 kartu apapun.
  3. Staright flush adalah kondisi kartu dimana kartu anda dan kartu tengah dengan total 7 kartu bisa mendapatkan nilai 5 kartu dengan kombinasi seri / staright dengan kembang yang sama contoh : urutan kartu dari angka 5, 6, 7, 8 , 9 10 dengan kembang yg sama misalnya as hati
  4. Royal flush adalah kondisi kartu dimana kartu anda dan kartu tengah dengan total 7 kartu bisa mendapatkan nilai 5 kartu dengan kombinasi seri / staright dengan kembang yang sama tetapi kartu tersebut haruslah dimulai dari 10. contoh 10, Queen, Jack, King dan aces dengan kembang yang sama
  5. Super Royal flush adalah kondisi kartu dimana Kedua kartu anda digabung dengan 3 kartu pertama meja haruslah royal flush. contoh kartu anda 10,Queen kembang sama dan 3 kartu pertama meja adalah Jack, King dan aces dengan kembang yang sama

Demikian adalah penjelasan dari Multi Jackpot www.pasarkartu.net terima kasih dan selamat bermain salam hoki dari kami

Texas Poker Jackpot Winner

TOP SUPER ROYAL FLUSH
No.TanggalNamaPriceWin
117/07 06:09SADEWANGSuper Royal flush15,000,000
217/07 05:37SXENRESuper Royal flush3,000,000
317/07 02:43JOZZZ99Super Royal flush6,000,000
417/07 01:45SOSIM8899Super Royal flush15,000,000
516/07 23:46AA7C7D8ESuper Royal flush15,000,000
TOP ROYAL FLUSH
No.TanggalNamaPriceWin
117/07 06:36BUNDAKEKEYRoyal flush5,000,000
217/07 06:18LAHTAZANJRRoyal flush2,000,000
317/07 05:57SABBAR77Royal flush5,000,000
417/07 05:48M4NC1TORoyal flush2,000,000
517/07 05:48KEJORA450Royal flush2,000,000
TOP STRAIGHT FLUSH
No.TanggalNamaPriceWin
117/07 07:02WQOIEWQKP6Straight Flush1,200,000
217/07 07:01NINUNENOStraight Flush240,000
317/07 06:58DUDO_45Straight Flush120,000
417/07 06:54DEPONKStraight Flush240,000
517/07 06:50TARULI88Straight Flush60,000
LATEST JACKPOT
No.TanggalNamaPriceWin
117/07 07:05BOLA66Four Of A Kind25,000
217/07 07:05FCFAC1C6Full House2,000
317/07 07:05MINI098Full House1,000
417/07 07:05NANGK00Full House1,000
517/07 07:05THUMILA99Full House10,000
617/07 07:05DVDFull House10,000
717/07 07:05WIL1ZZFull House20,000
817/07 07:05D3333N1Full House10,000
917/07 07:05HAMDJRFull House5,000
1017/07 07:05FERAARIIFull House2,000
1117/07 07:05023EJHS93JFull House5,000
1217/07 07:05BOSSLUIFull House5,000
1317/07 07:05AMBONG86Full House10,000
1417/07 07:05WT7CH4O2X9Full House10,000
1517/07 07:05LUCKYSTRIKE77Four Of A Kind250,000
1617/07 07:05KIRAI007Full House2,000
1717/07 07:05CECE144Full House2,000
1817/07 07:05PLS8787Full House5,000
1917/07 07:05MR__LEGENDFull House2,000
2017/07 07:05S8NM0D61QSFull House10,000
2117/07 07:05IWIN_WINIFull House2,000
2217/07 07:05HENDRA363Full House2,000
2317/07 07:05AJJO86Full House2,000
2417/07 07:05KICRAYYYYFull House2,000
2517/07 07:04BENGOT03Full House2,000
2617/07 07:04WATESENEG7Full House5,000
2717/07 07:04N3G4L567Full House5,000
2817/07 07:04GYQVCJZVP2Full House2,000
2917/07 07:04AQEELA3Full House2,000
3017/07 07:04TOROFRESCOFull House1,000
3117/07 07:04NFKLUPJAXEFull House2,000
3217/07 07:04RGZYI5Z1DSFull House2,000
3317/07 07:04JESSASUFull House10,000
3417/07 07:04LK4DP3RTALIT77Full House1,000
3517/07 07:04ALANG77Full House1,000
3617/07 07:04SUWALLFull House1,000
3717/07 07:04ALEXXBAROSFull House1,000
3817/07 07:04LAG4Full House2,000
3917/07 07:04SAMBARNYOWFull House2,000
4017/07 07:04BLGLUFull House10,000
4117/07 07:04RANGIT22Full House2,000
4217/07 07:04SUHARA06Full House10,000
4317/07 07:04S41D4H22Full House5,000
4417/07 07:04THEA01Full House2,000
4517/07 07:04DEMITEMPANFull House2,000
4617/07 07:04R12ELFull House5,000
4717/07 07:04INCHRIT90Full House5,000
4817/07 07:04SJAIFULFull House5,000
4917/07 07:04E6VCKX5R45Full House2,000
5017/07 07:04DANANG338Full House5,000

Domino Multi Jackpot System

Ikutilah global jackpot yang tersedia di system kami, dengan system jackpot terbaru dan pertama di indonesia, anda dapat membeli jackpot dengan harga 100 rupiah saja dan menangkan hadiahnya hingga puluhan juta rupiah.

Jackpot bukanlah suatu keharusan untuk dibeli, namun kami memberikan suatu fitur tambahan untuk member tercinta dari www.pasarkartu.net.

Terdapat tiga pilihan harga jackpot yang bisa anda beli yaitu :100,500 dan 1000 rupiah.

Hadiah dari Multi jackpot system www.pasarkartu.net

  1. Murni Kecil x 50 harga jackpot yang anda beli.
      (contoh:anda membeli 1000 maka:1000 X 50 = 50.000)
  2. Murni Besar x 50 harga jackpot yang anda beli
      (contoh:anda membeli 1000 maka:1000 X 50 = 50.000)
  3. BALAK x 100 harga jackpot yang anda beli
      (contoh:anda membeli 1000 maka:1000 X 100 = 100.000)
  4. ENAM DEWA x 6666 harga jackpot yang anda beli
      (contoh:anda membeli 1000 maka:1000 X 6666 = 6.666.000)

Demikian adalah penjelasan dari Multi Jackpot www.pasarkartu.net terima kasih dan selamat bermain salam hoki dari kami

Domino Jackpot Winner

TOP ENAM DEWA
No.TanggalNamaPriceWin
117/07 03:44CANGKER21murni enam3,333,000
217/07 03:01KAYUU615murni enam6,666,000
317/07 02:46BUSET41murni enam6,666,000
417/07 01:53BALANDO87murni enam3,333,000
517/07 01:12CHALISA99murni enam6,666,000
TOP BALAK
No.TanggalNamaPriceWin
117/07 07:05A33ADIN49balak50,000
217/07 06:58ADI8900balak10,000
317/07 06:58QKANbalak100,000
417/07 06:51AADRBAAD25balak50,000
517/07 06:45KPTNbalak100,000
LATEST JACKPOT
No.TanggalNamaPriceWin
117/07 07:05A33ADIN49balak50,000
217/07 07:05BAHTIAR87murni kecil25,000
317/07 07:05AKBARBOmurni kecil25,000
417/07 07:05SIDE72murni besar25,000
517/07 07:04HERI77ANDAmurni besar50,000
617/07 07:04BINUANG66murni besar25,000
717/07 07:03KEBO00983murni besar50,000
817/07 07:03LOLIPOP24murni kecil25,000
917/07 07:02TONO757murni besar50,000
1017/07 07:02DEMARCOS01murni besar50,000
1117/07 07:02ERIN111murni kecil50,000
1217/07 07:02HOKIHELMImurni kecil50,000
1317/07 07:02DUEK10murni kecil25,000
1417/07 07:00Z0DIAKLEOmurni besar50,000
1517/07 07:00LAMBEKE92murni kecil50,000
1617/07 06:59P4KU11murni besar50,000
1717/07 06:58ADI8900balak10,000
1817/07 06:58J4BILmurni besar25,000
1917/07 06:58QKANbalak100,000
2017/07 06:57AAYESHAmurni besar50,000
2117/07 06:55SUHE234murni besar50,000
2217/07 06:55ZTK09murni kecil50,000
2317/07 06:54GADIIIIIIImurni besar50,000
2417/07 06:53IBP89447murni besar25,000
2517/07 06:53EKHAGHOmurni kecil25,000
2617/07 06:52DIREKTUR03murni besar25,000
2717/07 06:51MAULANAS10murni kecil5,000
2817/07 06:51SSSSSSMMMmurni besar25,000
2917/07 06:51AADRBAAD25balak50,000
3017/07 06:51AGUSWONG77murni kecil50,000
3117/07 06:51RAJAHOKY01murni kecil50,000
3217/07 06:51JJ2234murni besar50,000
3317/07 06:51DL33JZ9LUDmurni kecil50,000
3417/07 06:50DDB84DA8murni besar25,000
3517/07 06:50SSAALLAmurni besar25,000
3617/07 06:49ANTUBANYU9murni kecil50,000
3717/07 06:49STFLUSH30murni besar25,000
3817/07 06:48IBP89447murni besar25,000
3917/07 06:48M3ONK99murni kecil50,000
4017/07 06:47T1T4JOmurni kecil25,000
4117/07 06:47G8YBW0XHB1murni besar25,000
4217/07 06:47BARAGAZUmurni kecil50,000
4317/07 06:46FAAN067murni besar50,000
4417/07 06:45KPTNbalak100,000
4517/07 06:44WAKADI10murni besar25,000
4617/07 06:43GOD_LOVERSmurni kecil25,000
4717/07 06:43RIBET78murni besar25,000
4817/07 06:43AZKHA883murni besar50,000
4917/07 06:42APENK28balak100,000
5017/07 06:42CA6W9OZT1Pmurni besar25,000

Ceme Multi Jackpot System

Jackpot dilihat dari gabungan kartu pemain dengan kartu bandar. Bandar harus membeli jackpot sebanyak jumlah player yang sedang duduk. Sebagai contoh bila terdapat 3 pemain duduk bermain, dan bandar memutuskan untuk membeli jackpot Rp 1.000, maka pada periode tersebut bandar akan membeli jackpot sebanyak 3xRp1.000 = Rp3.000.

Jackpot bukanlah suatu keharusan untuk dibeli, namun kami memberikan suatu fitur tambahan untuk member tercinta dari www.pasarkartu.net.

Terdapat tiga pilihan harga jackpot yang bisa anda beli yaitu :100,500 dan 1000 rupiah.

Hadiah dari Multi jackpot system www.pasarkartu.net

  1. Murni Kecil x 50 harga jackpot yang anda beli.
      (contoh:anda membeli 1000 maka:1000 X 50 = 50.000)
  2. Murni Besar x 50 harga jackpot yang anda beli
      (contoh:anda membeli 1000 maka:1000 X 50 = 50.000)
  3. BALAK x 200 harga jackpot yang anda beli
      (contoh:anda membeli 1000 maka:1000 X 200 = 200.000)
  4. ENAM DEWA x 6666 harga jackpot yang anda beli
      (contoh:anda membeli 1000 maka:1000 X 6666 = 6.666.000)

Demikian adalah penjelasan dari Multi Jackpot www.pasarkartu.net terima kasih dan selamat bermain salam hoki dari kami

Ceme Jackpot Winner

TOP ENAM DEWA
No.TanggalNamaPriceWin
117/07 06:52RAYA890murni enam3,333,000
217/07 06:45MUKNI88murni enam3,333,000
317/07 06:33LAJEL99murni enam6,666,000
417/07 06:33DWTARDAMJI212murni enam6,666,000
517/07 05:52SAMPANKERmurni enam6,666,000
TOP BALAK
No.TanggalNamaPriceWin
117/07 07:05BALIGO9999balak100,000
217/07 07:05BALIGO9999balak100,000
317/07 07:05MUHI_21balak20,000
417/07 07:05PLEWWEKbalak200,000
517/07 07:04MISAL238balak200,000
LATEST JACKPOT
No.TanggalNamaPriceWin
117/07 07:05BALIGO9999murni besar25,000
217/07 07:05BALIGO9999balak100,000
317/07 07:05BALIGO9999balak100,000
417/07 07:05MUHI_21balak20,000
517/07 07:05BOCIL7878murni besar25,000
617/07 07:05LI1WC2KEXBmurni besar5,000
717/07 07:05TABOGEL99murni besar50,000
817/07 07:05PLEWWEKbalak200,000
917/07 07:05A98UKROMIN558murni kecil50,000
1017/07 07:04BOTINK28murni besar50,000
1117/07 07:04MUS3TOP4murni besar50,000
1217/07 07:04HELLO381murni kecil50,000
1317/07 07:04MISAL238balak200,000
1417/07 07:03TIO_LSmurni besar50,000
1517/07 07:03AMRICA88murni besar50,000
1617/07 07:03MACHAZENTmurni besar50,000
1717/07 07:03RAMAJAWAmurni kecil25,000
1817/07 07:03WUWIKL7Z6Umurni besar25,000
1917/07 07:03SAIPUL407murni besar5,000
2017/07 07:03WLW7O760QTbalak100,000
2117/07 07:03ORALITE_SFmurni kecil50,000
2217/07 07:03ARCHER50murni besar50,000
2317/07 07:02YOGGA888murni besar50,000
2417/07 07:02ARPANDOmurni besar50,000
2517/07 07:02WN77Rmurni kecil50,000
2617/07 07:02JUHAR70murni besar25,000
2717/07 07:02RAJA_JD9murni besar50,000
2817/07 07:02MYLUCKY0murni kecil50,000
2917/07 07:01BHAZACK25murni kecil25,000
3017/07 07:01PANSER1994murni kecil50,000
3117/07 07:01B87NI813murni kecil5,000
3217/07 07:01PANSER1994murni kecil50,000
3317/07 07:01TEMBOK18murni besar5,000
3417/07 07:01FASYA23murni kecil50,000
3517/07 07:01ERWIN4646murni kecil50,000
3617/07 07:00JOHN713balak200,000
3717/07 07:00CB150DONbalak200,000
3817/07 07:00C8033E59balak200,000
3917/07 07:00SAKOMURAHmurni besar50,000
4017/07 07:00DOMHI808murni kecil50,000
4117/07 07:00SAIMILTON6murni kecil25,000
4217/07 07:00LAKSANA36murni kecil50,000
4317/07 07:00BMASmurni kecil5,000
4417/07 06:59MELONRRQmurni kecil25,000
4517/07 06:59A27DI206murni kecil50,000
4617/07 06:59AMRICA88balak200,000
4717/07 06:59EKADUTHAbalak100,000
4817/07 06:58MUHI_21balak20,000
4917/07 06:58BALIGO9999balak20,000
5017/07 06:58CANIBITE90murni besar50,000